OH3KLJ-1 Weather Reports


time (UTC)temp
F
wind
direction
speed
knots
gust
knots
rain 1hr
in
rain 24hr
in
rain mn
in
humidity
%
barometer
mb
20260906064216 53 157 0.9 0.9 0.00 0.00 0.00 77 1111.0
20260906063716 52 247 0.0 0.0 0.00 0.00 0.00 79 1111.0
20260906062717 51 157 0.0 0.0 0.00 0.00 0.00 80 1111.0
20260906062215 51 337 0.0 0.0 0.00 0.00 0.00 81 1111.0
20260906061714 51 337 0.0 0.0 0.00 0.00 0.00 81 1111.0
20260906054212 49 135 0.0 0.0 0.00 0.00 0.00 85 1111.0
20260906053712 49 90 0.0 0.0 0.00 0.00 0.00 85 1111.0
20260906052712 48 180 0.0 0.0 0.00 0.00 0.00 86 1111.0
20260906052211 48 247 0.0 0.0 0.00 0.00 0.00 86 1111.0
20260906051211 48 90 0.0 0.0 0.00 0.00 0.00 85 1111.0
20260906050710 48 45 0.0 0.0 0.00 0.00 0.00 85 1111.0
20260906050210 48 135 0.0 0.9 0.00 0.00 0.00 85 1111.0
20260906045710 48 135 0.0 0.0 0.00 0.00 0.00 85 1111.0
20260906043710 48 337 0.0 0.0 0.00 0.00 0.00 84 1111.0
20260906043208 48 67 0.0 0.0 0.00 0.00 0.00 84 1111.0
20260906042708 48 202 0.0 0.0 0.00 0.00 0.00 83 1111.0
20260906042208 48 337 0.0 0.0 0.00 0.00 0.00 83 1111.0
20260906041209 48 157 0.0 0.0 0.00 0.00 0.00 82 1111.0
20260906040707 48 157 0.0 0.0 0.00 0.00 0.00 82 1111.0
20260906040207 48 45 0.0 0.0 0.00 0.00 0.00 81 1111.0
20260906035707 48 112 0.0 0.0 0.00 0.00 0.00 81 1111.0
20260906035206 48 337 0.0 0.0 0.00 0.00 0.00 81 1111.0
20260905070304 61 337 0.0 0.0 0.00 0.00 0.00 78 1111.0
20260905065804 61 337 0.0 0.0 0.00 0.00 0.00 78 1111.0
20260905065306 60 112 0.0 0.0 0.00 0.00 0.00 80 1111.0
20260905064804 59 337 0.0 0.0 0.00 0.00 0.00 81 1111.0
20260905064303 59 315 0.0 0.0 0.00 0.00 0.00 82 1111.0